Location: St. Louis
(38.6270°N, 90.1994°W)
Time: 04:37:29
(UTC-05:00)

RS-15 - Pass Details

Date: 28 January 2022
Orbit: 1881 x 2163 km, 64.8° (Epoch: 20 May)

Event Time Altitude Azimuth Distance (km) Brightness Sun altitude
Exits shadow 05:36:25 11° 241° (WSW) 4,545 9.5 -18.3°
Drops below altitude 10° 05:37:06 10° 238° (WSW) 4,619 9.5 -18.2°
Sets 05:43:02 0° 216° (SW) 5,570 10.2 -17.1°
